Tracking 29892 objects as of 21-Nov-2024
HD Live streaming from Space Station
objects crossing your sky now

USA 40 R/B DEB

Track USA 40 R/B DEB now!
10-day predictions


NORAD ID: 23372
Int'l Code: 1989-061AU
Perigee: 519.4 km
Apogee: 5,804.5 km
Inclination: 57.0 °
Period: 154.4 minutes
Semi major axis: 9532 km
RCS: Unknown
Launch date: August 8, 1989
Source: United States (US)
Launch site: AIR FORCE EASTERN TEST RANGE (AFETR)

Note: This is SATELLITE DEBRIS
Your satellite tracking list
Your tracking list is empty




NASA's NSSDC Master Catalog

Two Line Element Set (TLE):
1 23372U 89061AU  24324.03173598  .00014705  00000-0  99281-2 0  9990
2 23372  57.0195  76.2735 2772006 139.1390 245.4285  9.32741083189247
Source of the keplerian elements: AFSPC